FENGYUN 1C DEB

Satellite information

Favourite Embed

Satellite Type and Status

DEBRISIN ORBIT

Key statistics

Satellite FENGYUN 1C DEB at a glance.

Uptime

9615

Days in orbit

Revolutions

≈ 13.8

Per day

Orbit

SSO

Sun Synchronous Orbit

Inclination

99.6

Latest

Satellite identification and parameters

Extended collection of information and parameters for FENGYUN 1C DEB.

Object identification

Identified? True

Debris? True

Object name: FENGYUN 1C DEB

International designator: 1999-025CUG

Object number (NORAD): 32186

Object ID (CCSDS): 32186

Country: PEOPLES REPUBLIC OF CHINA (PRC)

Current information (Y/N): Y

RCS size: SMALL

Orbital parameters

Period: 104.637 minutes

Inclination: 99.619 deg

SMA: 7355.589 km

Apoapsis: 1180.17 km

Periapsis: 774.738 km

RAAN: 294.7953 deg

Eccentricy: 0.02755946

Argument of periapsis: 105.2363 deg

Mean anomaly: 280.5429 deg

Mean motion: 13.7618437 rev/day

Mean motion (dot): 0.00002308 rev/day2

B* drag term: 0.001827695 1/REarth

Two-line elements (TLE)

Creation date: Sept. 2, 2025, 11:42 p.m.

Reference frame: TEME

Reference center: EARTH

Epoch: Sept. 2, 2025, 9:34 a.m. UTC

TLE line 0: 0 FENGYUN 1C DEB

TLE line 1: 1 32186U 99025CUG 25245.39919344 .00002308 00000-0 18277-2 0 9995

TLE line 2: 2 32186 99.6190 294.7953 0275595 105.2363 280.5429 13.76184370612164

Live tracking on map

Real-time ground track for satellite FENGYUN 1C DEB.

In-orbit conjunctions

A list of the most updated potential collisions computed for object FENGYUN 1C DEB.

Target Orbit TCA Probability of collision Miss distance Type
SS 1 LEO 2025-05-28 04:08:32 0.00117892 27.0 (m) PAYLOAD
SAPPHIRE LEO 2025-01-31 10:48:18 0.0005673223 773.0 (m) PAYLOAD

Associated space launch

Chinese polar orbiting meteorological satellite

FENGYUN 1C DEB was lifted into orbit during the mission ‘Long March 4B | Feng Yun 1C’, on board a Long March 4B space rocket.

The launch took place on May 10, 1999, 1:33 a.m. from Launch Complex 7.

For more information about the launch, click the button.

Launch to space Long March 4B | Feng Yun 1C
Long March 4B | Feng Yun 1C

Agency: N/A

Status: Launch Successful

Launch date: May 10, 1999, 1:33 a.m. UTC

Rocket: Long March 4B

Launch pad: Launch Complex 7

Location: Taiyuan Satellite Launch Center, People's Republic of China

...

Latest news about this satellite

There are no fresh news available about this satellite. Check back as we update our databases every day.


Newsletter sign-up

Weekly statistics, charts and insights to help you stay on top of the space industry.